Regional Weather Roundup
Issued by NWS Jackson, KY

Home | Current Version | Previous Version | Graphics & Text | Print | Product List | Glossary On
Versions: 1 2 3 4 5 6 7 8 9 10 11 12 13 14 15 16 17 18 19 20 21 22 23 24 25 26 27 28 29 30 31 32 33 34 35 36 37 38 39 40 41 42 43 44 45 46 47 48 49 50
000
ASUS43 KJKL 251511
RWRJKL

EAST KENTUCKY HOURLY WEATHER ROUNDUP
NATIONAL WEATHER SERVICE JACKSON KY
1000 AM EST THU DEC 25 2014

NOTE: "FAIR" INDICATES FEW OR NO CLOUDS BELOW 12,000 FEET WITH
NO SIGNIFICANT WEATHER AND/OR OBSTRUCTIONS TO VISIBILITY.

* THESE REPORTS ARE NOT UNDER NWS QUALITY CONTROL AND MAY NOT
  REPORT WEATHER SUCH AS PRECIPITATION AND FOG.

KYZ079-080-083-085-087-088-110-112-115-119-120-251600
...EASTERN KENTUCKY...

CITY           SKY/WX    TMP DP  RH WIND       PRES   REMARKS
JACKSON        CLOUDY    38  34  85 VRB3      30.12R
LONDON         CLOUDY    40  31  70 W9        30.16R WCI  34
SOMERSET*      CLOUDY    37  32  81 SW7       30.18R WCI  32
MONTICELLO*    CLOUDY    40  36  86 SW7       30.19R
MIDDLESBORO*   CLOUDY    40  33  74 CALM      30.17R
HARLAN APT*    CLOUDY    37  32  81 SW3       30.15R
BLACK MTN*       N/A     28  28 100 NW3         N/A
PIKEVILLE APT* CLOUDY    39  34  81 SW8       30.11R WCI  34
BIG SANDY*     CLOUDY    40  34  78 W7        30.12R
MOREHEAD APT*  CLOUDY    37  32  81 W8G16     30.14R WCI  31
$$

KYZ035-036-041-042-044-050-067-078-099-251600
...CENTRAL KENTUCKY...

CITY           SKY/WX    TMP DP  RH WIND       PRES   REMARKS
MT STERLING*   CLOUDY    37  32  81 W12       30.14R WCI  30
FLEMING/MASON* DRIZZLE   36  34  93 W15       30.13R WCI  26
DANVILLE*      CLOUDY    37  32  81 W5        30.15R WCI  34
RICHMOND*      CLOUDY    37  32  81 W7        30.14R WCI  32
LEXINGTON      CLOUDY    38  32  79 SW8       30.13R WCI  32
FRANKFORT      CLOUDY    37  32  82 W7        30.12R WCI  32
$$

KYZ091>093-OHZ055-061-077-WVZ005-015-034-035-042-251600
...SOUTHERN OHIO/WEST VIRGINIA...

CITY           SKY/WX    TMP DP  RH WIND       PRES   REMARKS
COVINGTON      DRIZZLE   36  31  82 SW6       30.08R WCI  31
COLUMBUS       LGT RAIN  36  32  85 W12       30.03R WCI  28
DAYTON         CLOUDY    38  29  70 W14       30.04R WCI  30
WILMINGTON     CLOUDY    36  29  75 W17G24    30.05R WCI  26
HUNTINGTON     CLOUDY    39  32  76 W7        30.10R WCI  34
CHARLESTON     CLOUDY    41  34  76 VRB5      30.09R
PINEVILLE*     CLOUDY    41  36  81 MISG      30.13R
BECKLEY        LGT RAIN  36  30  79 W12G21    30.04R WCI  28
BLUEFIELD      CLOUDY    37  28  70 W10G24    30.05R WCI  30
$$

VAZ002-007-008-TNZ017-027-036-066-071-251600
...SOUTHWEST VIRGINIA/EAST TENNESSEE...

CITY           SKY/WX    TMP DP  RH WIND       PRES   REMARKS
WISE*          CLOUDY    37  34  87 SW8       30.10R WCI  31
JONESVILLE*    CLOUDY    39  34  81 SW8       30.18R WCI  34
ABINGDON*      CLOUDY    40  33  75 W10G16    30.11R WCI  33
BRISTOL        CLOUDY    41  33  73 W10       30.14R
KNOXVILLE      PTSUNNY   42  35  76 W9        30.19R
OAK RIDGE      CLOUDY    43  35  73 VRB5      30.20R
CROSSVILLE     CLOUDY    38  32  79 W5        30.16R WCI  34
NASHVILLE      CLOUDY    41  32  70 W7        30.20R
$$

...KEY TO REMARKS...
VSB - VISIBILITY IN MILES
WCI - WIND CHILL INDEX
HX  - HEAT INDEX

$$



USA.gov is the U.S. government's official web portal to all federal, state and local government web resources and services.